| time (UTC) | temp F | wind direction | speed MPH | gust MPH | rain 1hr in | rain 24hr in | rain mn in | humidity % | barometer mb |
| 20260503224517 | 69 | 271 | 5.0 | 12.0 | 0.00 | 0.00 | 0.00 | 1004.4 | |
| 20260503223022 | 69 | 279 | 3.0 | 11.0 | 0.00 | 0.00 | 0.00 | 36 | 1004.3 |
| 20260503221520 | 69 | 253 | 3.0 | 15.0 | 0.00 | 0.00 | 0.00 | 36 | 1004.4 |
| 20260503220021 | 68 | 288 | 4.0 | 13.0 | 0.00 | 0.00 | 0.00 | 37 | 1004.4 |
| 20260503214519 | 68 | 9 | 5.0 | 13.0 | 0.00 | 0.00 | 0.00 | 37 | 1004.4 |
| 20260503213020 | 68 | 254 | 6.0 | 14.0 | 0.00 | 0.00 | 0.00 | 40 | 1004.4 |
| 20260503211532 | 67 | 248 | 5.0 | 15.0 | 0.00 | 0.00 | 0.00 | 41 | 1004.6 |
| 20260503210020 | 66 | 215 | 6.0 | 16.0 | 0.00 | 0.00 | 0.00 | 42 | 1004.7 |
| 20260503204520 | 65 | 247 | 8.0 | 16.0 | 0.00 | 0.00 | 0.00 | 42 | 1004.9 |
| 20260503203022 | 65 | 250 | 5.0 | 18.0 | 0.00 | 0.00 | 0.00 | 43 | 1005.0 |
| 20260503201524 | 64 | 153 | 8.0 | 18.0 | 0.00 | 0.00 | 0.00 | 43 | 1005.2 |
| 20260503200019 | 64 | 246 | 7.0 | 15.0 | 0.00 | 0.00 | 0.00 | 44 | 1005.3 |
| 20260503194525 | 63 | 215 | 9.0 | 19.0 | 0.00 | 0.00 | 0.00 | 45 | 1005.6 |
| 20260503193025 | 62 | 201 | 8.0 | 19.0 | 0.00 | 0.00 | 0.00 | 45 | 1005.8 |
| 20260503191524 | 62 | 216 | 11.0 | 17.0 | 0.00 | 0.00 | 0.00 | 46 | 1006.1 |
| 20260503190040 | 63 | 218 | 7.0 | 19.0 | 0.00 | 0.00 | 0.00 | 44 | 1006.0 |
| 20260503184521 | 62 | 280 | 6.0 | 16.0 | 0.00 | 0.00 | 0.00 | 45 | 1006.1 |
| 20260503183011 | 61 | 239 | 8.0 | 19.0 | 0.00 | 0.00 | 0.00 | 47 | 1006.2 |
| 20260503181508 | 60 | 224 | 7.0 | 20.0 | 0.00 | 0.00 | 0.00 | 47 | 1006.4 |
| 20260503180022 | 60 | 201 | 7.0 | 24.0 | 0.00 | 0.00 | 0.00 | 47 | 1006.5 |
| 20260503174517 | 59 | 215 | 9.0 | 31.0 | 0.00 | 0.00 | 0.00 | 48 | 1006.5 |
| 20260503173025 | 59 | 242 | 8.0 | 19.0 | 0.00 | 0.00 | 0.00 | 48 | 1006.9 |
| 20260503171511 | 59 | 236 | 8.0 | 20.0 | 0.00 | 0.00 | 0.00 | 48 | 1006.8 |
| 20260503081537 | 46 | 225 | 5.0 | 13.0 | 0.00 | 0.00 | 0.00 | 51 | 1011.4 |
| 20260503071528 | 45 | 191 | 5.0 | 10.0 | 0.00 | 0.00 | 0.00 | 52 | 1011.7 |
| 20260503054537 | 45 | 202 | 5.0 | 10.0 | 0.00 | 0.00 | 0.00 | 50 | 1012.3 |
| 20260503053028 | 46 | 211 | 5.0 | 12.0 | 0.00 | 0.00 | 0.00 | 49 | 1012.5 |
| 20260503051520 | 46 | 192 | 3.0 | 9.0 | 0.00 | 0.00 | 0.00 | 48 | 1012.7 |
| 20260503050023 | 46 | 202 | 4.0 | 8.0 | 0.00 | 0.00 | 0.00 | 48 | 1012.7 |
| 20260503044526 | 46 | 189 | 4.0 | 8.0 | 0.00 | 0.00 | 0.00 | 47 | 1012.9 |
| 20260503043028 | 46 | 215 | 3.0 | 9.0 | 0.00 | 0.00 | 0.00 | 46 | 1013.0 |
| 20260503041526 | 47 | 179 | 3.0 | 9.0 | 0.00 | 0.00 | 0.00 | 45 | 1013.2 |
| 20260503040027 | 47 | 202 | 3.0 | 7.0 | 0.00 | 0.00 | 0.00 | 44 | 1013.4 |
| 20260503034506 | 48 | 219 | 3.0 | 9.0 | 0.00 | 0.00 | 0.00 | 43 | 1013.5 |
| 20260503033020 | 48 | 213 | 3.0 | 8.0 | 0.00 | 0.00 | 0.00 | 43 | 1013.6 |
| 20260503031516 | 48 | 250 | 3.0 | 5.0 | 0.00 | 0.00 | 0.00 | 41 | 1013.7 |
| 20260503030023 | 49 | 229 | 3.0 | 6.0 | 0.00 | 0.00 | 0.00 | 41 | 1013.8 |
| 20260503024524 | 49 | 215 | 2.0 | 5.0 | 0.00 | 0.00 | 0.00 | 40 | 1013.9 |
| 20260503023012 | 50 | 190 | 2.0 | 6.0 | 0.00 | 0.00 | 0.00 | 39 | 1013.9 |
| 20260503021515 | 50 | 193 | 4.0 | 7.0 | 0.00 | 0.00 | 0.00 | 38 | 1013.9 |
| 20260503020019 | 50 | 214 | 2.0 | 5.0 | 0.00 | 0.00 | 0.00 | 38 | 1013.8 |
| 20260503014535 | 51 | 213 | 1.0 | 4.0 | 0.00 | 0.00 | 0.00 | 38 | 1013.7 |
| 20260503013033 | 51 | 196 | 2.0 | 6.0 | 0.00 | 0.00 | 0.00 | 37 | 1013.6 |
| 20260503011512 | 52 | 196 | 2.0 | 6.0 | 0.00 | 0.00 | 0.00 | 36 | 1013.7 |
| 20260503010018 | 53 | 206 | 1.0 | 5.0 | 0.00 | 0.00 | 0.00 | 36 | 1013.6 |
| 20260503004527 | 54 | 236 | 3.0 | 7.0 | 0.00 | 0.00 | 0.00 | 34 | 1013.6 |
| 20260503003026 | 54 | 282 | 2.0 | 7.0 | 0.00 | 0.00 | 0.00 | 34 | 1013.7 |
| 20260503001528 | 55 | 290 | 2.0 | 8.0 | 0.00 | 0.00 | 0.00 | 33 | 1013.8 |
| 20260503000013 | 56 | 256 | 3.0 | 9.0 | 0.00 | 0.00 | 0.00 | 32 | 1013.9 |
| 20260502234519 | 56 | 275 | 4.0 | 12.0 | 0.00 | 0.00 | 0.00 | 32 | 1014.1 |
| 20260502233022 | 56 | 293 | 3.0 | 11.0 | 0.00 | 0.00 | 0.00 | 33 | 1014.2 |
| 20260502231526 | 57 | 279 | 2.0 | 12.0 | 0.00 | 0.00 | 0.00 | 32 | 1014.2 |
| 20260502230028 | 57 | 265 | 3.0 | 7.0 | 0.00 | 0.00 | 0.00 | 31 | 1014.4 |